Erzurum, Turkey

8:03 PM +03 on December 15, 2017 (GMT +0300)
Erzurum

Weather History for LTCE - September, 2013

Change the Weather History Date:

Monday, September 23, 2013

  Actual Average Record
Temperature  
Mean Temperature 52 °F -  
Max Temperature 60 °F 61 °F 81 °F (2017)
Min Temperature 42 °F 38 °F 32 °F (1996)
Degree Days  
Heating Degree Days 13    
Growing Degree Days 2 (Base 50)    
Moisture  
Dew Point 41 °F    
Average Humidity 67    
Maximum Humidity 87    
Minimum Humidity 34    
Precipitation  
Precipitation 0.00 in 0.05 in - ()
Sea Level Pressure  
Sea Level Pressure 29.90 in    
Wind  
Wind Speed 8 mph ()    
Max Wind Speed 21 mph    
Max Gust Speed -    
Visibility 6.6 miles    
Events Rain    
Averages and records for this station are not official NWS values.
T = Trace of Precipitation, MM = Missing Value Source: Averaged Metar Reports

Daily Weather History Graph

Daily Weather History Graph

Search for Another Location

Airport or City:

Trip Planner

Search our weather history database for the weather conditions in past years. The results will help you decide how hot, cold, wet, or windy it might be!

Date:

Astronomy

Sep. 23, 2013 Rise Set
Actual Time 6:03 AM EEST 6:10 PM EEST
Civil Twilight 5:36 AM EEST 6:37 PM EEST
Nautical Twilight 5:05 AM EEST 7:09 PM EEST
Astronomical Twilight 4:33 AM EEST 7:41 PM EEST
Moon 8:27 PM EEST (9/23) 10:01 AM EEST (9/23)
Length of Visible Light 13h 01m
Length of Day
12h 07m
Waning Gibbous, 84% of the Moon is Illuminated
Sep 23
Waning Gibbous
Sep 27
Last Quarter
Oct 5
New
Oct 12
First Quarter
Oct 19
Full

Hourly Weather History & Observations

Time (EEST) Temp. Windchill Dew Point Humidity Pressure Visibility Wind Dir Wind Speed Gust Speed Precip Events Conditions
12:20 AM 50.0 °F - 44.6 °F 82% 29.95 in 6.2 mi ENE 4.6 mph - N/A   Mostly Cloudy
12:50 AM 50.0 °F - 44.6 °F 82% 29.95 in 6.2 mi ENE 5.8 mph - N/A   Mostly Cloudy
1:20 AM 50.0 °F - 44.6 °F 82% 29.95 in 6.2 mi ENE 10.4 mph - N/A   Mostly Cloudy
1:50 AM 48.2 °F - 44.6 °F 87% 29.95 in 6.2 mi NE 8.1 mph - N/A   Mostly Cloudy
2:20 AM 48.2 °F - 42.8 °F 82% 29.95 in 6.2 mi NNE 8.1 mph - N/A   Mostly Cloudy
2:50 AM 48.2 °F - 42.8 °F 82% 29.95 in 6.2 mi NE 8.1 mph - N/A   Mostly Cloudy
3:00 AM 48 °F - 43 °F 78%  in 12 mi NE 8.1 mph - -   Partly Cloudy
3:20 AM 48.2 °F - 42.8 °F 82% 29.92 in 6.2 mi NE 12.7 mph - N/A   Mostly Cloudy
3:50 AM 48.2 °F - 42.8 °F 82% 29.92 in 6.2 mi ENE 9.2 mph - N/A   Mostly Cloudy
4:20 AM 48.2 °F - 42.8 °F 82% 29.92 in 6.2 mi NE 9.2 mph - N/A   Mostly Cloudy
4:50 AM 48.2 °F - 42.8 °F 82% 29.92 in 6.2 mi NE 13.8 mph - N/A   Mostly Cloudy
5:20 AM 48.2 °F - 42.8 °F 82% 29.92 in 6.2 mi NE 13.8 mph - N/A   Mostly Cloudy
5:50 AM 48.2 °F - 42.8 °F 82% 29.92 in 6.2 mi NE 12.7 mph - N/A   Mostly Cloudy
6:20 AM 48.2 °F - 42.8 °F 82% 29.92 in 6.2 mi ENE 11.5 mph - N/A   Mostly Cloudy
6:50 AM 48.2 °F - 42.8 °F 82% 29.92 in 6.2 mi NE 9.2 mph - N/A   Mostly Cloudy
7:20 AM 48.2 °F - 42.8 °F 82% 29.92 in 6.2 mi ENE 9.2 mph - N/A   Mostly Cloudy
7:50 AM 50.0 °F - 46.4 °F 87% 29.92 in 6.2 mi NNE 6.9 mph - N/A   Mostly Cloudy
8:20 AM 50.0 °F - 46.4 °F 87% 29.92 in 6.2 mi NNE 6.9 mph - N/A   Mostly Cloudy
8:50 AM 50.0 °F - 44.6 °F 82% 29.92 in 6.2 mi North 5.8 mph - N/A   Mostly Cloudy
9:00 AM 50 °F - 44 °F 73%  in 12 mi North 5.8 mph - -   Mostly Cloudy
9:20 AM 51.8 °F - 42.8 °F 71% 29.92 in 6.2 mi NNE 5.8 mph - N/A   Mostly Cloudy
9:50 AM 51.8 °F - 42.8 °F 71% 29.92 in 6.2 mi NE 4.6 mph - N/A   Mostly Cloudy
10:20 AM 53.6 °F - 44.6 °F 72% 29.92 in 6.2 mi Variable 3.5 mph - N/A   Mostly Cloudy
10:50 AM 55.4 °F - 42.8 °F 63% 29.92 in 6.2 mi NNW 3.5 mph - N/A   Mostly Cloudy
11:20 AM 55.4 °F - 42.8 °F 63% 29.89 in 6.2 mi WNW 4.6 mph - N/A   Mostly Cloudy
11:50 AM 55.4 °F - 42.8 °F 63% 29.89 in 6.2 mi West 6.9 mph - N/A   Mostly Cloudy
12:20 PM 57.2 °F - 41.0 °F 55% 29.89 in 6.2 mi West 9.2 mph - N/A   Mostly Cloudy
12:50 PM 59.0 °F - 39.2 °F 48% 29.89 in 6.2 mi West 11.5 mph - N/A   Mostly Cloudy
1:20 PM 59.0 °F - 39.2 °F 48% 29.86 in 6.2 mi West 13.8 mph - N/A   Mostly Cloudy
1:48 PM 59.0 °F - 39.2 °F 48% 29.86 in 6.2 mi West 17.3 mph - N/A Rain Light Rain Showers
1:50 PM 59.0 °F - 39.2 °F 48% 29.86 in 6.2 mi West 17.3 mph - N/A Rain Light Rain Showers
2:07 PM 59.0 °F - 39.2 °F 48% 29.86 in 6.2 mi West 17.3 mph - N/A   Mostly Cloudy
2:20 PM 59.0 °F - 39.2 °F 48% 29.83 in 6.2 mi West 20.7 mph - N/A   Mostly Cloudy
2:50 PM 60.8 °F - 39.2 °F 45% 29.83 in 6.2 mi West 19.6 mph - N/A   Mostly Cloudy
3:00 PM 60 °F - 39 °F 34%  in 12 mi West 19.6 mph - - Rain Light Rain Showers
3:20 PM 59.0 °F - 37.4 °F 45% 29.83 in 6.2 mi West 18.4 mph - N/A   Mostly Cloudy
3:50 PM 57.2 °F - 33.8 °F 41% 29.86 in 6.2 mi West 18.4 mph - N/A   Mostly Cloudy
4:20 PM 57.2 °F - 37.4 °F 48% 29.86 in 6.2 mi WSW 19.6 mph - N/A   Mostly Cloudy
4:50 PM 57.2 °F - 37.4 °F 48% 29.86 in 6.2 mi West 16.1 mph - N/A   Mostly Cloudy
5:20 PM 57.2 °F - 37.4 °F 48% 29.86 in 6.2 mi West 15.0 mph - N/A   Mostly Cloudy
5:50 PM 53.6 °F - 39.2 °F 58% 29.86 in 6.2 mi West 10.4 mph - N/A   Scattered Clouds
6:20 PM 51.8 °F - 39.2 °F 62% 29.89 in 6.2 mi West 8.1 mph - N/A   Scattered Clouds
6:50 PM 50.0 °F - 37.4 °F 62% 29.89 in 6.2 mi WSW 6.9 mph - N/A   Scattered Clouds
7:20 PM 48.2 °F - 37.4 °F 66% 29.89 in 6.2 mi Variable 1.2 mph - N/A   Scattered Clouds
7:50 PM 51.8 °F - 37.4 °F 58% 29.89 in 6.2 mi West 4.6 mph - N/A   Scattered Clouds
8:20 PM 51.8 °F - 37.4 °F 58% 29.92 in 6.2 mi West 5.8 mph - N/A   Scattered Clouds
8:50 PM 50.0 °F - 37.4 °F 62% 29.92 in 6.2 mi SSW 3.5 mph - N/A   Scattered Clouds
9:00 PM 50 °F - 38 °F 52%  in 12 mi SSW 3.5 mph - -   Partly Cloudy
9:20 PM 48.2 °F - 37.4 °F 66% 29.92 in 6.2 mi WSW 4.6 mph - N/A   Scattered Clouds
9:50 PM 46.4 °F - 37.4 °F 71% 29.92 in 6.2 mi Variable 2.3 mph - N/A   Scattered Clouds
10:20 PM 46.4 °F 45.2 °F 37.4 °F 71% 29.92 in 6.2 mi SW 3.5 mph - N/A   Scattered Clouds
10:50 PM 44.6 °F - 37.4 °F 76% 29.92 in 6.2 mi Variable 2.3 mph - N/A   Scattered Clouds
11:20 PM 44.6 °F 43.1 °F 37.4 °F 76% 29.92 in 6.2 mi SW 3.5 mph - N/A   Scattered Clouds
11:50 PM 42.8 °F - 37.4 °F 81% 29.89 in 6.2 mi Variable 1.2 mph - N/A   Scattered Clouds